Location: Newark
(39.9581°N, 97.2014°W)
Time: 11:04:00
(UTC+00:00)

Vanguard 2 - Visible Passes

Search period start: 19 February 2020 00:00
Search period end: 29 February 2020 00:00
Orbit: 552 x 2939 km, 32.9° (Epoch: 19 February)

Date Brightness Start Highest point End Pass type
(mag) Time Alt. Az. Time Alt. Az. Time Alt. Az.
19 Feb 11.2 07:54:03 19° ESE 07:54:03 19° ESE 07:58:46 10° E visible
19 Feb 9.9 09:55:27 51° S 09:57:23 54° SSE 10:13:34 10° E visible
19 Feb 10.4 11:56:52 18° WSW 12:08:49 68° S 12:26:37 10° ESE visible
20 Feb 11.0 08:10:52 24° ESE 08:10:52 24° ESE 08:17:33 10° E visible
20 Feb 9.8 10:12:15 52° SSW 10:15:08 60° SSE 10:31:45 10° E visible
20 Feb 10.4 12:13:39 13° W 12:26:49 66° S 12:44:35 10° ESE visible
21 Feb 10.7 08:27:38 31° ESE 08:27:38 31° ESE 08:36:03 10° E visible
21 Feb 9.8 10:29:02 49° SW 10:33:00 64° S 10:49:54 10° E visible
21 Feb 10.5 12:30:36 10° W 12:44:49 63° S 13:02:26 10° ESE visible
22 Feb 10.4 08:44:24 38° ESE 08:44:24 38° ESE 08:54:22 10° E visible
22 Feb 9.8 10:45:48 43° WSW 10:50:56 65° S 11:08:00 10° E visible
23 Feb 10.1 09:01:09 46° SE 09:01:09 46° SE 09:12:36 10° E visible
23 Feb 9.9 11:02:33 36° WSW 11:08:54 65° S 11:26:02 10° ESE visible
24 Feb 11.5 07:16:31 11° E 07:16:31 11° E 07:16:48 10° E visible
24 Feb 9.8 09:17:55 54° SE 09:17:55 54° SE 09:30:47 10° E visible
24 Feb 10.1 11:19:19 30° WSW 11:26:52 63° S 11:43:59 10° ESE visible
25 Feb 11.3 07:33:17 15° E 07:33:17 15° E 07:35:16 10° E visible
25 Feb 9.6 09:34:41 60° SSE 09:34:41 60° SSE 09:48:56 10° E visible
25 Feb 10.2 11:36:04 24° W 11:44:50 60° SSW 12:01:49 10° ESE visible
26 Feb 11.0 07:50:04 19° E 07:50:04 19° E 07:53:33 10° E visible
26 Feb 9.5 09:51:28 63° S 09:51:44 63° S 10:07:01 10° ESE visible
26 Feb 10.3 11:52:52 18° W 12:02:46 54° SSW 12:19:29 10° SE visible
27 Feb 10.8 08:06:52 24° E 08:06:52 24° E 08:11:46 10° E visible
27 Feb 9.4 10:08:16 59° SSW 10:09:39 62° S 10:25:03 10° ESE visible
27 Feb 10.4 12:09:40 13° W 12:20:40 48° SSW 12:36:55 10° SE visible
28 Feb 10.6 08:23:42 29° ESE 08:23:42 29° ESE 08:29:54 10° E visible
28 Feb 9.5 10:25:06 51° SW 10:27:35 59° S 10:42:58 10° ESE visible
28 Feb 10.6 12:26:53 10° W 12:38:32 41° SSW 12:54:05 10° SE visible
